Time,TemperatureF,DewpointF,PressureIn,WindDirection,WindDirectionDegrees,WindSpeedMPH,WindSpeedGustMPH,Humidity,HourlyPrecipIn,Conditions,Clouds,dailyrainin,SolarRadiationWatts/m^2,SoftwareType,DateUTC
2013-05-14 00:01:00,59.3,38.0,30.09,SSE,150,5.0,10.0,45,0.00,,FEW120,0.00,0.00,VWS V14.01,2013-05-14 05:01:00,
2013-05-14 00:06:00,59.2,38.5,30.09,SSE,163,5.0,8.0,46,0.00,,FEW120,0.00,0.00,VWS V14.01,2013-05-14 05:06:00,
2013-05-14 00:12:00,59.2,37.9,30.09,SSE,168,4.0,12.0,45,0.00,,FEW120,0.00,0.00,VWS V14.01,2013-05-14 05:12:00,
2013-05-14 00:17:00,59.2,38.5,30.09,SSE,161,8.0,8.0,46,0.00,,FEW120,0.00,0.00,VWS V14.01,2013-05-14 05:17:00,
2013-05-14 00:23:00,59.0,38.3,30.08,SSE,160,8.0,9.0,46,0.00,,FEW120,0.00,0.00,VWS V14.01,2013-05-14 05:23:00,
2013-05-14 00:28:00,59.0,38.3,30.08,SSE,155,5.0,10.0,46,0.00,,FEW120,0.00,0.00,VWS V14.01,2013-05-14 05:28:00,
2013-05-14 00:33:00,58.7,38.0,30.08,SSE,162,5.0,10.0,46,0.00,,FEW120,0.00,0.00,VWS V14.01,2013-05-14 05:33:00,
2013-05-14 00:39:00,58.6,37.9,30.08,SSE,159,5.0,11.0,46,0.00,,FEW120,0.00,0.00,VWS V14.01,2013-05-14 05:39:00,
2013-05-14 00:44:00,58.7,38.0,30.07,SSE,162,8.0,10.0,46,0.00,,FEW120,0.00,0.00,VWS V14.01,2013-05-14 05:44:00,
2013-05-14 00:49:00,58.7,38.0,30.07,SSE,149,6.0,13.0,46,0.00,,FEW120,0.00,0.00,VWS V14.01,2013-05-14 05:49:00,
2013-05-14 00:54:00,58.6,37.9,30.07,SSE,155,9.0,11.0,46,0.00,,FEW120,0.00,0.00,VWS V14.01,2013-05-14 05:54:00,
2013-05-14 00:59:00,58.6,37.9,30.06,SSE,162,5.0,12.0,46,0.00,,FEW120,0.00,0.00,VWS V14.01,2013-05-14 05:59:00,
2013-05-14 01:04:00,58.7,37.4,30.06,SSE,160,13.0,13.0,45,0.00,,FEW120,0.00,0.00,VWS V14.01,2013-05-14 06:04:00,
2013-05-14 01:10:00,58.7,36.9,30.06,SE,144,6.0,14.0,44,0.00,,FEW120,0.00,0.00,VWS V14.01,2013-05-14 06:10:00,
2013-05-14 01:15:00,58.7,37.4,30.05,South,171,9.0,12.0,45,0.00,,FEW120,0.00,0.00,VWS V14.01,2013-05-14 06:15:00,
2013-05-14 01:20:00,58.6,37.3,30.04,SE,138,9.0,11.0,45,0.00,,FEW120,0.00,0.00,VWS V14.01,2013-05-14 06:20:00,
2013-05-14 01:25:00,58.6,37.3,30.04,SSE,155,5.0,10.0,45,0.00,,FEW120,0.00,0.00,VWS V14.01,2013-05-14 06:25:00,
2013-05-14 01:31:00,58.6,37.3,30.04,SSE,161,8.0,12.0,45,0.00,,FEW120,0.00,0.00,VWS V14.01,2013-05-14 06:31:00,
2013-05-14 01:36:00,58.4,37.2,30.04,SE,144,12.0,13.0,45,0.00,,FEW120,0.00,0.00,VWS V14.01,2013-05-14 06:36:00,
2013-05-14 01:41:00,58.3,37.1,30.03,SSE,161,8.0,15.0,45,0.00,,FEW120,0.00,0.00,VWS V14.01,2013-05-14 06:41:00,
2013-05-14 01:46:00,58.1,37.5,30.03,SE,144,12.0,13.0,46,0.00,,FEW120,0.00,0.00,VWS V14.01,2013-05-14 06:46:00,
2013-05-14 01:51:00,57.8,37.2,30.03,SE,131,6.0,10.0,46,0.00,,FEW120,0.00,0.00,VWS V14.01,2013-05-14 06:51:00,
2013-05-14 01:56:00,57.6,37.5,30.02,SSE,158,14.0,14.0,47,0.00,,FEW120,0.00,0.00,VWS V14.01,2013-05-14 06:56:00,
2013-05-14 02:01:00,57.8,37.2,30.02,SE,137,6.0,17.0,46,0.00,,CLR,0.00,0.00,VWS V14.01,2013-05-14 07:01:00,
2013-05-14 02:06:00,57.6,37.5,30.01,SSE,152,11.0,12.0,47,0.00,,CLR,0.00,0.00,VWS V14.01,2013-05-14 07:06:00,
2013-05-14 02:11:00,57.5,37.5,30.01,SSE,161,13.0,13.0,47,0.00,,CLR,0.00,0.00,VWS V14.01,2013-05-14 07:11:00,
2013-05-14 02:16:00,57.5,37.5,30.01,SSE,148,11.0,11.0,47,0.00,,CLR,0.00,0.00,VWS V14.01,2013-05-14 07:16:00,
2013-05-14 02:22:00,57.6,37.0,30.00,SSE,156,11.0,17.0,46,0.00,,CLR,0.00,0.00,VWS V14.01,2013-05-14 07:22:00,
2013-05-14 02:27:00,57.6,37.5,30.00,SSE,165,12.0,14.0,47,0.00,,CLR,0.00,0.00,VWS V14.01,2013-05-14 07:27:00,
2013-05-14 02:32:00,57.6,37.5,29.99,SSE,164,9.0,13.0,47,0.00,,CLR,0.00,0.00,VWS V14.01,2013-05-14 07:32:00,
2013-05-14 02:37:00,57.6,37.5,29.99,SSE,161,9.0,17.0,47,0.00,,CLR,0.00,0.00,VWS V14.01,2013-05-14 07:37:00,
2013-05-14 02:42:00,57.6,37.5,29.99,SSE,154,9.0,15.0,47,0.00,,CLR,0.00,0.00,VWS V14.01,2013-05-14 07:42:00,
2013-05-14 02:47:00,57.3,37.8,29.98,SSE,159,16.0,16.0,48,0.00,,CLR,0.00,0.00,VWS V14.01,2013-05-14 07:47:00,
2013-05-14 02:52:00,57.3,37.8,29.99,SSE,150,6.0,13.0,48,0.00,,CLR,0.00,0.00,VWS V14.01,2013-05-14 07:52:00,
2013-05-14 02:57:00,57.0,38.0,29.98,SSE,151,7.0,11.0,49,0.00,,CLR,0.00,0.00,VWS V14.01,2013-05-14 07:57:00,
2013-05-14 03:02:00,57.0,38.6,29.99,SSE,161,4.0,13.0,50,0.00,,CLR,0.00,0.00,VWS V14.01,2013-05-14 08:02:00,
2013-05-14 03:07:00,56.9,38.5,29.98,SSE,161,7.0,11.0,50,0.00,,CLR,0.00,0.00,VWS V14.01,2013-05-14 08:07:00,
2013-05-14 03:12:00,56.7,38.3,29.98,SSE,152,14.0,14.0,50,0.00,,CLR,0.00,0.00,VWS V14.01,2013-05-14 08:12:00,
2013-05-14 03:17:00,56.6,38.7,29.98,SSE,166,10.0,14.0,51,0.00,,CLR,0.00,0.00,VWS V14.01,2013-05-14 08:17:00,
2013-05-14 03:22:00,56.6,39.2,29.98,SSE,167,8.0,17.0,52,0.00,,CLR,0.00,0.00,VWS V14.01,2013-05-14 08:22:00,
2013-05-14 03:27:00,56.6,39.2,29.98,SSE,160,10.0,10.0,52,0.00,,CLR,0.00,0.00,VWS V14.01,2013-05-14 08:27:00,
2013-05-14 03:32:00,56.6,39.7,29.98,SSE,165,7.0,10.0,53,0.00,,CLR,0.00,0.00,VWS V14.01,2013-05-14 08:32:00,
2013-05-14 03:37:00,56.6,39.7,29.97,SSE,163,5.0,15.0,53,0.00,,CLR,0.00,0.00,VWS V14.01,2013-05-14 08:37:00,
2013-05-14 03:42:00,56.7,39.8,29.98,SSE,166,7.0,17.0,53,0.00,,CLR,0.00,0.00,VWS V14.01,2013-05-14 08:42:00,
2013-05-14 03:47:00,56.7,40.3,29.97,SSE,149,10.0,11.0,54,0.00,,CLR,0.00,0.00,VWS V14.01,2013-05-14 08:47:00,
2013-05-14 03:52:00,56.7,40.3,29.97,SSE,159,12.0,16.0,54,0.00,,CLR,0.00,0.00,VWS V14.01,2013-05-14 08:52:00,
2013-05-14 03:57:00,56.7,40.3,29.96,SSE,161,13.0,13.0,54,0.00,,CLR,0.00,0.00,VWS V14.01,2013-05-14 08:57:00,
2013-05-14 04:02:00,56.7,40.7,29.96,SSE,161,7.0,14.0,55,0.00,,CLR,0.00,0.00,VWS V14.01,2013-05-14 09:02:00,
2013-05-14 04:07:00,56.7,40.7,29.96,SSE,165,8.0,20.0,55,0.00,,CLR,0.00,0.00,VWS V14.01,2013-05-14 09:07:00,
2013-05-14 04:12:00,56.7,41.2,29.96,South,189,8.0,15.0,56,0.00,,CLR,0.00,0.00,VWS V14.01,2013-05-14 09:12:00,
2013-05-14 04:17:00,57.0,41.5,29.95,South,170,12.0,14.0,56,0.00,,CLR,0.00,0.00,VWS V14.01,2013-05-14 09:17:00,
2013-05-14 04:22:00,57.0,41.5,29.95,SSE,147,9.0,12.0,56,0.00,,CLR,0.00,0.00,VWS V14.01,2013-05-14 09:22:00,
2013-05-14 04:27:00,57.2,41.7,29.95,South,173,9.0,15.0,56,0.00,,CLR,0.00,0.00,VWS V14.01,2013-05-14 09:27:00,
2013-05-14 04:32:00,57.3,42.2,29.94,SSE,162,6.0,16.0,57,0.00,,CLR,0.00,0.00,VWS V14.01,2013-05-14 09:32:00,
2013-05-14 04:37:00,57.3,42.2,29.94,SSE,153,9.0,14.0,57,0.00,,CLR,0.00,0.00,VWS V14.01,2013-05-14 09:37:00,
2013-05-14 04:42:00,57.3,42.2,29.94,South,169,8.0,14.0,57,0.00,,CLR,0.00,0.00,VWS V14.01,2013-05-14 09:42:00,
2013-05-14 04:47:00,57.3,42.7,29.94,South,181,11.0,11.0,58,0.00,,CLR,0.00,0.00,VWS V14.01,2013-05-14 09:47:00,
2013-05-14 04:52:00,57.3,42.7,29.93,SSE,161,7.0,7.0,58,0.00,,CLR,0.00,0.00,VWS V14.01,2013-05-14 09:52:00,
2013-05-14 04:57:00,57.3,42.7,29.93,SSE,167,11.0,15.0,58,0.00,,CLR,0.00,0.00,VWS V14.01,2013-05-14 09:57:00,
2013-05-14 05:02:00,57.5,42.8,29.93,South,175,5.0,14.0,58,0.00,,CLR,0.00,0.00,VWS V14.01,2013-05-14 10:02:00,
2013-05-14 05:07:00,57.3,43.1,29.93,SSE,163,5.0,9.0,59,0.00,,CLR,0.00,0.00,VWS V14.01,2013-05-14 10:07:00,
2013-05-14 05:12:00,57.2,43.0,29.93,SSE,155,6.0,19.0,59,0.00,,CLR,0.00,0.00,VWS V14.01,2013-05-14 10:12:00,
2013-05-14 05:17:00,57.2,43.5,29.93,SSW,192,6.0,14.0,60,0.00,,CLR,0.00,0.00,VWS V14.01,2013-05-14 10:17:00,
2013-05-14 05:22:00,57.2,43.5,29.93,South,171,7.0,15.0,60,0.00,,CLR,0.00,0.00,VWS V14.01,2013-05-14 10:22:00,
2013-05-14 05:27:00,57.0,43.3,29.93,SSE,167,6.0,11.0,60,0.00,,CLR,0.00,0.00,VWS V14.01,2013-05-14 10:27:00,
2013-05-14 05:32:00,56.7,43.4,29.93,South,173,7.0,19.0,61,0.00,,CLR,0.00,0.00,VWS V14.01,2013-05-14 10:32:00,
2013-05-14 05:37:00,56.6,43.3,29.93,SSE,163,11.0,16.0,61,0.00,,CLR,0.00,0.00,VWS V14.01,2013-05-14 10:37:00,
2013-05-14 05:42:00,56.6,43.8,29.92,South,171,4.0,18.0,62,0.00,,CLR,0.00,5.00,VWS V14.01,2013-05-14 10:42:00,
2013-05-14 05:47:00,56.6,43.8,29.93,SSE,165,7.0,15.0,62,0.00,,CLR,0.00,7.00,VWS V14.01,2013-05-14 10:47:00,
2013-05-14 05:52:00,56.5,43.7,29.92,SSE,166,6.0,11.0,62,0.00,,CLR,0.00,11.00,VWS V14.01,2013-05-14 10:52:00,
2013-05-14 05:57:00,56.3,43.5,29.92,SSE,163,7.0,9.0,62,0.00,,CLR,0.00,12.00,VWS V14.01,2013-05-14 10:57:00,
2013-05-14 06:02:00,56.3,43.9,29.92,South,180,5.0,6.0,63,0.00,,CLR,0.00,16.00,VWS V14.01,2013-05-14 11:02:00,
2013-05-14 06:07:00,56.3,43.9,29.92,South,171,6.0,18.0,63,0.00,,CLR,0.00,18.00,VWS V14.01,2013-05-14 11:07:00,
2013-05-14 06:12:00,56.3,43.9,29.91,SSE,166,5.0,13.0,63,0.00,,CLR,0.00,26.00,VWS V14.01,2013-05-14 11:12:00,
2013-05-14 06:17:00,56.3,43.9,29.91,South,169,6.0,12.0,63,0.00,,CLR,0.00,44.00,VWS V14.01,2013-05-14 11:17:00,
2013-05-14 06:22:00,56.3,44.3,29.91,SSE,167,8.0,13.0,64,0.00,,CLR,0.00,58.00,VWS V14.01,2013-05-14 11:22:00,
2013-05-14 06:27:00,56.5,44.5,29.91,SSE,163,8.0,10.0,64,0.00,,CLR,0.00,74.00,VWS V14.01,2013-05-14 11:27:00,
2013-05-14 06:33:00,56.5,44.5,29.91,SSE,165,8.0,11.0,64,0.00,,CLR,0.00,86.00,VWS V14.01,2013-05-14 11:33:00,
2013-05-14 06:38:00,56.6,44.6,29.91,SSE,159,12.0,13.0,64,0.00,,CLR,0.00,100.00,VWS V14.01,2013-05-14 11:38:00,
2013-05-14 06:44:00,56.7,44.7,29.90,SSE,163,8.0,16.0,64,0.00,,CLR,0.00,114.00,VWS V14.01,2013-05-14 11:44:00,
2013-05-14 06:49:00,57.0,45.0,29.90,South,174,11.0,13.0,64,0.00,,CLR,0.00,132.00,VWS V14.01,2013-05-14 11:49:00,
2013-05-14 06:54:00,57.2,45.2,29.90,SSE,155,13.0,17.0,64,0.00,,CLR,0.00,148.00,VWS V14.01,2013-05-14 11:54:00,
2013-05-14 06:59:00,57.3,44.8,29.90,SSE,163,4.0,10.0,63,0.00,,CLR,0.00,165.00,VWS V14.01,2013-05-14 11:59:00,
2013-05-14 07:04:00,57.5,45.0,29.90,SSE,148,7.0,9.0,63,0.00,,CLR,0.00,181.00,VWS V14.01,2013-05-14 12:04:00,
2013-05-14 07:09:00,57.6,45.1,29.89,SSE,165,12.0,14.0,63,0.00,,CLR,0.00,188.00,VWS V14.01,2013-05-14 12:09:00,
2013-05-14 07:15:00,58.0,45.5,29.89,South,169,8.0,13.0,63,0.00,,CLR,0.00,199.00,VWS V14.01,2013-05-14 12:15:00,
2013-05-14 07:20:00,58.1,45.6,29.89,South,172,5.0,7.0,63,0.00,,CLR,0.00,234.00,VWS V14.01,2013-05-14 12:20:00,
2013-05-14 07:25:00,58.4,45.5,29.89,SSE,153,11.0,13.0,62,0.00,,CLR,0.00,229.00,VWS V14.01,2013-05-14 12:25:00,
2013-05-14 07:30:00,58.7,46.2,29.89,SSE,166,11.0,12.0,63,0.00,,CLR,0.00,251.00,VWS V14.01,2013-05-14 12:30:00,
2013-05-14 07:35:00,58.9,45.9,29.89,South,176,5.0,11.0,62,0.00,,CLR,0.00,281.00,VWS V14.01,2013-05-14 12:35:00,
2013-05-14 07:40:00,59.2,46.6,29.88,SSE,157,12.0,16.0,63,0.00,,CLR,0.00,297.00,VWS V14.01,2013-05-14 12:40:00,
2013-05-14 07:45:00,59.6,46.6,29.89,South,178,7.0,10.0,62,0.00,,CLR,0.00,313.00,VWS V14.01,2013-05-14 12:45:00,
2013-05-14 07:50:00,59.9,46.9,29.88,SSE,166,5.0,9.0,62,0.00,,CLR,0.00,330.00,VWS V14.01,2013-05-14 12:50:00,
2013-05-14 07:55:00,60.4,47.3,29.88,South,172,5.0,14.0,62,0.00,,CLR,0.00,346.00,VWS V14.01,2013-05-14 12:55:00,
2013-05-14 08:00:00,60.5,47.4,29.88,SSW,212,9.0,10.0,62,0.00,,CLR,0.00,360.00,VWS V14.01,2013-05-14 13:00:00,
2013-05-14 08:05:00,60.7,47.2,29.88,South,175,11.0,13.0,61,0.00,,CLR,0.00,376.00,VWS V14.01,2013-05-14 13:05:00,
2013-05-14 08:10:00,61.0,47.5,29.88,South,171,4.0,12.0,61,0.00,,CLR,0.00,392.00,VWS V14.01,2013-05-14 13:10:00,
2013-05-14 08:15:00,61.3,47.8,29.88,South,186,6.0,8.0,61,0.00,,CLR,0.00,410.00,VWS V14.01,2013-05-14 13:15:00,
2013-05-14 08:21:00,61.8,48.2,29.87,SSE,161,14.0,14.0,61,0.00,,CLR,0.00,427.00,VWS V14.01,2013-05-14 13:21:00,
2013-05-14 08:26:00,62.0,48.4,29.86,South,182,5.0,8.0,61,0.00,,CLR,0.00,446.00,VWS V14.01,2013-05-14 13:26:00,
2013-05-14 08:31:00,62.4,49.2,29.86,SSE,155,7.0,7.0,62,0.00,,CLR,0.00,462.00,VWS V14.01,2013-05-14 13:31:00,
2013-05-14 08:36:00,62.7,48.6,29.86,SSE,159,8.0,10.0,60,0.00,,CLR,0.00,482.00,VWS V14.01,2013-05-14 13:36:00,
2013-05-14 08:41:00,62.9,48.8,29.86,SSE,163,9.0,18.0,60,0.00,,CLR,0.00,492.00,VWS V14.01,2013-05-14 13:41:00,
2013-05-14 08:46:00,63.4,49.3,29.86,South,173,6.0,9.0,60,0.00,,CLR,0.00,510.00,VWS V14.01,2013-05-14 13:46:00,
2013-05-14 08:51:00,63.5,48.9,29.86,SSW,208,5.0,20.0,59,0.00,,CLR,0.00,524.00,VWS V14.01,2013-05-14 13:51:00,
2013-05-14 08:56:00,64.0,49.8,29.85,SSW,205,8.0,8.0,60,0.00,,CLR,0.00,543.00,VWS V14.01,2013-05-14 13:56:00,
2013-05-14 09:01:00,64.3,49.7,29.86,SSE,165,6.0,13.0,59,0.00,,CLR,0.00,561.00,VWS V14.01,2013-05-14 14:01:00,
2013-05-14 09:06:00,64.8,50.2,29.86,South,184,4.0,10.0,59,0.00,,CLR,0.00,573.00,VWS V14.01,2013-05-14 14:06:00,
2013-05-14 09:11:00,65.2,50.1,29.85,South,170,5.0,10.0,58,0.00,,CLR,0.00,594.00,VWS V14.01,2013-05-14 14:11:00,
2013-05-14 09:16:00,65.6,50.4,29.85,SSE,165,6.0,10.0,58,0.00,,CLR,0.00,605.00,VWS V14.01,2013-05-14 14:16:00,
2013-05-14 09:21:00,66.1,51.4,29.85,SW,221,6.0,8.0,59,0.00,,CLR,0.00,619.00,VWS V14.01,2013-05-14 14:21:00,
2013-05-14 09:26:00,66.8,51.1,29.85,SSE,167,6.0,18.0,57,0.00,,CLR,0.00,636.00,VWS V14.01,2013-05-14 14:26:00,
2013-05-14 09:31:00,67.4,51.7,29.84,SSW,202,7.0,12.0,57,0.00,,CLR,0.00,652.00,VWS V14.01,2013-05-14 14:31:00,
2013-05-14 09:36:00,67.6,50.9,29.84,SSW,210,5.0,19.0,55,0.00,,CLR,0.00,668.00,VWS V14.01,2013-05-14 14:36:00,
2013-05-14 09:42:00,67.6,51.4,29.84,South,171,7.0,9.0,56,0.00,,CLR,0.00,686.00,VWS V14.01,2013-05-14 14:42:00,
2013-05-14 09:47:00,67.9,51.6,29.84,SW,223,8.0,11.0,56,0.00,,CLR,0.00,700.00,VWS V14.01,2013-05-14 14:47:00,
2013-05-14 09:53:00,68.4,51.6,29.83,South,173,9.0,11.0,55,0.00,,CLR,0.00,712.00,VWS V14.01,2013-05-14 14:53:00,
2013-05-14 09:58:00,69.1,51.8,29.83,SSW,210,6.0,11.0,54,0.00,,CLR,0.00,726.00,VWS V14.01,2013-05-14 14:58:00,
2013-05-14 10:03:00,69.4,53.0,29.82,South,182,2.0,11.0,56,0.00,,CLR,0.00,742.00,VWS V14.01,2013-05-14 15:03:00,
2013-05-14 10:08:00,69.9,53.0,29.82,South,173,7.0,10.0,55,0.00,,CLR,0.00,752.00,VWS V14.01,2013-05-14 15:08:00,
2013-05-14 10:14:00,70.3,52.9,29.82,South,175,6.0,10.0,54,0.00,,CLR,0.00,763.00,VWS V14.01,2013-05-14 15:14:00,
2013-05-14 10:19:00,70.6,52.1,29.82,SW,215,7.0,14.0,52,0.00,,CLR,0.00,773.00,VWS V14.01,2013-05-14 15:19:00,
2013-05-14 10:24:00,70.9,52.9,29.82,WSW,252,4.0,8.0,53,0.00,,CLR,0.00,782.00,VWS V14.01,2013-05-14 15:24:00,
2013-05-14 10:29:00,71.6,53.1,29.82,SW,233,11.0,11.0,52,0.00,,CLR,0.00,795.00,VWS V14.01,2013-05-14 15:29:00,
2013-05-14 10:34:00,72.0,52.9,29.82,SW,223,7.0,15.0,51,0.00,,CLR,0.00,809.00,VWS V14.01,2013-05-14 15:34:00,
2013-05-14 10:39:00,72.5,53.4,29.82,SSW,208,6.0,11.0,51,0.00,,CLR,0.00,817.00,VWS V14.01,2013-05-14 15:39:00,
2013-05-14 10:44:00,73.0,53.3,29.82,South,183,6.0,13.0,50,0.00,,CLR,0.00,824.00,VWS V14.01,2013-05-14 15:44:00,
2013-05-14 10:49:00,73.2,53.5,29.82,SSW,212,7.0,9.0,50,0.00,,CLR,0.00,837.00,VWS V14.01,2013-05-14 15:49:00,
2013-05-14 10:55:00,73.5,53.7,29.82,SW,231,14.0,18.0,50,0.00,,CLR,0.00,851.00,VWS V14.01,2013-05-14 15:55:00,
2013-05-14 11:00:00,74.2,53.8,29.82,SSE,161,7.0,12.0,49,0.00,,CLR,0.00,861.00,VWS V14.01,2013-05-14 16:00:00,
2013-05-14 11:05:00,74.4,54.0,29.81,SW,232,6.0,18.0,49,0.00,,CLR,0.00,877.00,VWS V14.01,2013-05-14 16:05:00,
2013-05-14 11:10:00,74.7,53.7,29.81,SSW,212,5.0,11.0,48,0.00,,CLR,0.00,881.00,VWS V14.01,2013-05-14 16:10:00,
2013-05-14 11:15:00,75.3,55.4,29.81,South,182,8.0,10.0,50,0.00,,CLR,0.00,886.00,VWS V14.01,2013-05-14 16:15:00,
2013-05-14 11:20:00,75.3,54.3,29.81,SSE,167,8.0,12.0,48,0.00,,CLR,0.00,891.00,VWS V14.01,2013-05-14 16:20:00,
2013-05-14 11:26:00,75.6,54.5,29.81,SW,236,6.0,12.0,48,0.00,,CLR,0.00,898.00,VWS V14.01,2013-05-14 16:26:00,
2013-05-14 11:31:00,76.1,53.8,29.81,SSW,213,8.0,12.0,46,0.00,,CLR,0.00,904.00,VWS V14.01,2013-05-14 16:31:00,
2013-05-14 11:36:00,76.5,54.2,29.81,SSW,197,4.0,5.0,46,0.00,,CLR,0.00,911.00,VWS V14.01,2013-05-14 16:36:00,
2013-05-14 11:42:00,76.7,54.4,29.81,SSW,194,7.0,13.0,46,0.00,,CLR,0.00,916.00,VWS V14.01,2013-05-14 16:42:00,
2013-05-14 11:47:00,76.8,54.5,29.81,SW,214,5.0,14.0,46,0.00,,CLR,0.00,925.00,VWS V14.01,2013-05-14 16:47:00,
2013-05-14 11:52:00,77.2,55.4,29.81,SSW,207,7.0,10.0,47,0.00,,CLR,0.00,930.00,VWS V14.01,2013-05-14 16:52:00,
2013-05-14 11:57:00,77.6,55.2,29.81,SW,219,5.0,12.0,46,0.00,,CLR,0.00,937.00,VWS V14.01,2013-05-14 16:57:00,
2013-05-14 12:03:00,78.1,55.0,29.81,SW,223,6.0,7.0,45,0.00,,CLR,0.00,942.00,VWS V14.01,2013-05-14 17:03:00,
2013-05-14 12:08:00,78.1,54.4,29.81,West,277,4.0,9.0,44,0.00,,CLR,0.00,946.00,VWS V14.01,2013-05-14 17:08:00,
2013-05-14 12:13:00,78.5,55.4,29.80,SSW,212,5.0,11.0,45,0.00,,CLR,0.00,949.00,VWS V14.01,2013-05-14 17:13:00,
2013-05-14 12:18:00,78.6,54.9,29.80,SSW,192,4.0,13.0,44,0.00,,CLR,0.00,953.00,VWS V14.01,2013-05-14 17:18:00,
2013-05-14 12:23:00,78.8,55.1,29.80,SW,217,4.0,11.0,44,0.00,,CLR,0.00,956.00,VWS V14.01,2013-05-14 17:23:00,
2013-05-14 12:28:00,79.2,54.8,29.80,SSW,213,13.0,14.0,43,0.00,,CLR,0.00,963.00,VWS V14.01,2013-05-14 17:28:00,
2013-05-14 12:33:00,79.2,55.4,29.80,South,190,7.0,12.0,44,0.00,,CLR,0.00,962.00,VWS V14.01,2013-05-14 17:33:00,
2013-05-14 12:39:00,79.6,55.8,29.79,SSW,194,4.0,6.0,44,0.00,,CLR,0.00,965.00,VWS V14.01,2013-05-14 17:39:00,
2013-05-14 12:44:00,79.9,55.4,29.79,SW,215,6.0,10.0,43,0.00,,CLR,0.00,967.00,VWS V14.01,2013-05-14 17:44:00,
2013-05-14 12:49:00,79.9,55.4,29.79,SSW,198,4.0,11.0,43,0.00,,CLR,0.00,969.00,VWS V14.01,2013-05-14 17:49:00,
2013-05-14 12:54:00,80.3,57.0,29.79,SW,219,9.0,9.0,45,0.00,,CLR,0.00,972.00,VWS V14.01,2013-05-14 17:54:00,
2013-05-14 12:59:00,80.9,56.3,29.79,SSW,202,4.0,10.0,43,0.00,,CLR,0.00,970.00,VWS V14.01,2013-05-14 17:59:00,
2013-05-14 13:05:00,81.2,56.0,29.79,SSE,157,5.0,9.0,42,0.00,,CLR,0.00,970.00,VWS V14.01,2013-05-14 18:05:00,
2013-05-14 13:10:00,81.4,56.1,29.79,SW,216,1.0,13.0,42,0.00,,CLR,0.00,970.00,VWS V14.01,2013-05-14 18:10:00,
2013-05-14 13:15:00,81.6,56.3,29.78,SSW,198,4.0,5.0,42,0.00,,CLR,0.00,970.00,VWS V14.01,2013-05-14 18:15:00,
2013-05-14 13:20:00,81.8,55.8,29.79,SSW,207,2.0,8.0,41,0.00,,CLR,0.00,969.00,VWS V14.01,2013-05-14 18:20:00,
2013-05-14 13:25:00,82.2,56.2,29.78,SSW,213,7.0,12.0,41,0.00,,CLR,0.00,967.00,VWS V14.01,2013-05-14 18:25:00,
2013-05-14 13:31:00,82.8,56.0,29.78,SSW,211,8.0,11.0,40,0.00,,CLR,0.00,977.00,VWS V14.01,2013-05-14 18:31:00,
2013-05-14 13:36:00,82.8,56.0,29.78,SSW,202,4.0,14.0,40,0.00,,CLR,0.00,976.00,VWS V14.01,2013-05-14 18:36:00,
2013-05-14 13:41:00,83.2,56.4,29.78,SW,223,8.0,8.0,40,0.00,,CLR,0.00,953.00,VWS V14.01,2013-05-14 18:41:00,
2013-05-14 13:46:00,83.4,55.9,29.78,SSE,167,2.0,11.0,39,0.00,,CLR,0.00,932.00,VWS V14.01,2013-05-14 18:46:00,
2013-05-14 13:51:00,83.2,55.7,29.78,South,180,11.0,13.0,39,0.00,,CLR,0.00,960.00,VWS V14.01,2013-05-14 18:51:00,
2013-05-14 13:56:00,83.4,55.9,29.77,SSW,196,6.0,15.0,39,0.00,,CLR,0.00,947.00,VWS V14.01,2013-05-14 18:56:00,
2013-05-14 14:02:00,83.8,57.6,29.77,SW,222,6.0,10.0,41,0.00,,CLR,0.00,942.00,VWS V14.01,2013-05-14 19:02:00,
2013-05-14 14:07:00,84.3,56.7,29.77,SW,226,5.0,8.0,39,0.00,,CLR,0.00,911.00,VWS V14.01,2013-05-14 19:07:00,
2013-05-14 14:12:00,84.5,55.4,29.77,SW,215,5.0,8.0,37,0.00,,CLR,0.00,940.00,VWS V14.01,2013-05-14 19:12:00,
2013-05-14 14:17:00,84.5,55.4,29.77,WNW,288,5.0,6.0,37,0.00,,CLR,0.00,935.00,VWS V14.01,2013-05-14 19:17:00,
2013-05-14 14:23:00,84.7,55.6,29.77,SSE,157,5.0,10.0,37,0.00,,CLR,0.00,939.00,VWS V14.01,2013-05-14 19:23:00,
2013-05-14 14:28:00,84.7,55.6,29.77,SW,229,8.0,12.0,37,0.00,,CLR,0.00,932.00,VWS V14.01,2013-05-14 19:28:00,
2013-05-14 14:33:00,84.7,57.0,29.76,SW,223,5.0,6.0,39,0.00,,CLR,0.00,919.00,VWS V14.01,2013-05-14 19:33:00,
2013-05-14 14:38:00,85.1,56.7,29.76,South,185,3.0,7.0,38,0.00,,CLR,0.00,907.00,VWS V14.01,2013-05-14 19:38:00,
2013-05-14 14:43:00,85.3,56.8,29.76,South,169,10.0,14.0,38,0.00,,CLR,0.00,893.00,VWS V14.01,2013-05-14 19:43:00,
2013-05-14 14:48:00,85.5,56.3,29.76,SW,217,13.0,14.0,37,0.00,,CLR,0.00,879.00,VWS V14.01,2013-05-14 19:48:00,
2013-05-14 14:53:00,85.5,54.8,29.76,South,180,2.0,9.0,35,0.00,,CLR,0.00,875.00,VWS V14.01,2013-05-14 19:53:00,
2013-05-14 14:58:00,85.7,55.7,29.75,SSE,166,5.0,8.0,36,0.00,,CLR,0.00,865.00,VWS V14.01,2013-05-14 19:58:00,
2013-05-14 15:03:00,86.1,56.0,29.75,SSW,207,4.0,7.0,36,0.00,,CLR,0.00,867.00,VWS V14.01,2013-05-14 20:03:00,
2013-05-14 15:08:00,86.3,56.2,29.75,SSW,211,7.0,10.0,36,0.00,,CLR,0.00,860.00,VWS V14.01,2013-05-14 20:08:00,
2013-05-14 15:13:00,86.5,55.6,29.75,South,169,12.0,12.0,35,0.00,,CLR,0.00,854.00,VWS V14.01,2013-05-14 20:13:00,
2013-05-14 15:18:00,86.7,55.8,29.75,SSW,207,4.0,10.0,35,0.00,,CLR,0.00,847.00,VWS V14.01,2013-05-14 20:18:00,
2013-05-14 15:23:00,87.0,55.3,29.75,SW,220,11.0,11.0,34,0.00,,CLR,0.00,831.00,VWS V14.01,2013-05-14 20:23:00,
2013-05-14 15:28:00,87.0,55.3,29.75,SSW,210,4.0,14.0,34,0.00,,CLR,0.00,823.00,VWS V14.01,2013-05-14 20:28:00,
2013-05-14 15:33:00,87.0,55.3,29.74,SSW,210,7.0,9.0,34,0.00,,CLR,0.00,810.00,VWS V14.01,2013-05-14 20:33:00,
2013-05-14 15:38:00,87.4,55.6,29.74,South,182,9.0,11.0,34,0.00,,CLR,0.00,802.00,VWS V14.01,2013-05-14 20:38:00,
2013-05-14 15:43:00,87.4,55.6,29.74,SW,222,9.0,9.0,34,0.00,,CLR,0.00,784.00,VWS V14.01,2013-05-14 20:43:00,
2013-05-14 15:48:00,87.4,54.8,29.74,SSW,200,4.0,10.0,33,0.00,,CLR,0.00,777.00,VWS V14.01,2013-05-14 20:48:00,
2013-05-14 15:53:00,87.6,55.0,29.73,South,180,3.0,8.0,33,0.00,,CLR,0.00,761.00,VWS V14.01,2013-05-14 20:53:00,
2013-05-14 15:59:00,87.8,54.3,29.73,SW,214,3.0,10.0,32,0.00,,CLR,0.00,742.00,VWS V14.01,2013-05-14 20:59:00,
2013-05-14 16:04:00,88.0,55.3,29.73,SSW,212,7.0,10.0,33,0.00,,CLR,0.00,728.00,VWS V14.01,2013-05-14 21:04:00,
2013-05-14 16:09:00,88.0,56.1,29.73,SW,233,4.0,7.0,34,0.00,,CLR,0.00,712.00,VWS V14.01,2013-05-14 21:09:00,
2013-05-14 16:14:00,88.2,54.7,29.73,SW,221,6.0,9.0,32,0.00,,CLR,0.00,694.00,VWS V14.01,2013-05-14 21:14:00,
2013-05-14 16:19:00,88.4,55.7,29.73,WSW,239,2.0,11.0,33,0.00,,CLR,0.00,675.00,VWS V14.01,2013-05-14 21:19:00,
2013-05-14 16:25:00,88.4,57.3,29.73,South,173,4.0,7.0,35,0.00,,CLR,0.00,659.00,VWS V14.01,2013-05-14 21:25:00,
2013-05-14 16:30:00,88.2,56.3,29.72,SSE,165,4.0,8.0,34,0.00,,CLR,0.00,640.00,VWS V14.01,2013-05-14 21:30:00,
2013-05-14 16:35:00,88.6,55.0,29.72,SW,218,5.0,7.0,32,0.00,,CLR,0.00,622.00,VWS V14.01,2013-05-14 21:35:00,
2013-05-14 16:40:00,88.8,55.2,29.72,SSE,162,5.0,8.0,32,0.00,,CLR,0.00,608.00,VWS V14.01,2013-05-14 21:40:00,
2013-05-14 16:46:00,88.8,56.8,29.72,South,170,4.0,4.0,34,0.00,,CLR,0.00,592.00,VWS V14.01,2013-05-14 21:46:00,
2013-05-14 16:51:00,88.8,56.0,29.72,SSW,196,6.0,11.0,33,0.00,,CLR,0.00,575.00,VWS V14.01,2013-05-14 21:51:00,
2013-05-14 16:56:00,88.8,56.8,29.71,SSE,164,2.0,7.0,34,0.00,,CLR,0.00,550.00,VWS V14.01,2013-05-14 21:56:00,
2013-05-14 17:01:00,88.8,56.0,29.71,SSE,166,5.0,9.0,33,0.00,,CLR,0.00,529.00,VWS V14.01,2013-05-14 22:01:00,
2013-05-14 17:06:00,88.8,56.8,29.71,SSE,167,6.0,12.0,34,0.00,,CLR,0.00,520.00,VWS V14.01,2013-05-14 22:06:00,
2013-05-14 17:11:00,89.0,57.0,29.71,SSE,162,5.0,8.0,34,0.00,,CLR,0.00,504.00,VWS V14.01,2013-05-14 22:11:00,
2013-05-14 17:17:00,88.8,56.8,29.71,SSE,150,7.0,11.0,34,0.00,,CLR,0.00,492.00,VWS V14.01,2013-05-14 22:17:00,
2013-05-14 17:23:00,88.8,56.8,29.70,SSW,207,6.0,7.0,34,0.00,,CLR,0.00,475.00,VWS V14.01,2013-05-14 22:23:00,
2013-05-14 17:28:00,89.0,56.2,29.70,South,180,1.0,8.0,33,0.00,,CLR,0.00,448.00,VWS V14.01,2013-05-14 22:28:00,
2013-05-14 17:33:00,89.0,54.5,29.70,SSW,209,3.0,11.0,31,0.00,,CLR,0.00,432.00,VWS V14.01,2013-05-14 22:33:00,
2013-05-14 17:38:00,89.0,55.3,29.70,SSE,161,8.0,10.0,32,0.00,,CLR,0.00,415.00,VWS V14.01,2013-05-14 22:38:00,
2013-05-14 17:43:00,88.6,56.7,29.70,South,171,6.0,10.0,34,0.00,,CLR,0.00,396.00,VWS V14.01,2013-05-14 22:43:00,
2013-05-14 17:49:00,88.4,56.5,29.69,SSE,150,6.0,6.0,34,0.00,,CLR,0.00,380.00,VWS V14.01,2013-05-14 22:49:00,
2013-05-14 17:54:00,88.6,57.5,29.69,SSW,192,1.0,10.0,35,0.00,,CLR,0.00,360.00,VWS V14.01,2013-05-14 22:54:00,
2013-05-14 17:59:00,88.4,56.5,29.69,SSE,160,4.0,10.0,34,0.00,,CLR,0.00,343.00,VWS V14.01,2013-05-14 22:59:00,
2013-05-14 18:04:00,88.4,55.7,29.69,SSW,192,1.0,7.0,33,0.00,,CLR,0.00,332.00,VWS V14.01,2013-05-14 23:04:00,
2013-05-14 18:09:00,88.4,54.8,29.69,SW,215,1.0,10.0,32,0.00,,CLR,0.00,313.00,VWS V14.01,2013-05-14 23:09:00,
2013-05-14 18:14:00,88.4,55.7,29.68,South,186,3.0,12.0,33,0.00,,CLR,0.00,288.00,VWS V14.01,2013-05-14 23:14:00,
2013-05-14 18:19:00,88.2,56.3,29.68,SSE,168,6.0,9.0,34,0.00,,CLR,0.00,269.00,VWS V14.01,2013-05-14 23:19:00,
2013-05-14 18:24:00,88.0,56.9,29.68,SSW,212,5.0,17.0,35,0.00,,CLR,0.00,239.00,VWS V14.01,2013-05-14 23:24:00,
2013-05-14 18:29:00,87.8,56.8,29.68,SSW,201,2.0,8.0,35,0.00,,CLR,0.00,202.00,VWS V14.01,2013-05-14 23:29:00,
2013-05-14 18:35:00,87.4,57.2,29.68,SSE,165,9.0,9.0,36,0.00,,CLR,0.00,211.00,VWS V14.01,2013-05-14 23:35:00,
2013-05-14 18:40:00,87.0,57.6,29.68,South,177,10.0,13.0,37,0.00,,CLR,0.00,206.00,VWS V14.01,2013-05-14 23:40:00,
2013-05-14 18:45:00,86.5,57.9,29.68,SSE,164,6.0,7.0,38,0.00,,CLR,0.00,183.00,VWS V14.01,2013-05-14 23:45:00,
2013-05-14 18:50:00,86.3,58.5,29.68,SSE,168,4.0,8.0,39,0.00,,CLR,0.00,153.00,VWS V14.01,2013-05-14 23:50:00,
2013-05-14 18:55:00,85.9,58.1,29.68,South,174,2.0,6.0,39,0.00,,CLR,0.00,149.00,VWS V14.01,2013-05-14 23:55:00,
2013-05-14 19:00:00,85.9,58.1,29.68,SSE,161,4.0,8.0,39,0.00,,CLR,0.00,137.00,VWS V14.01,2013-05-15 00:00:00,
2013-05-14 19:05:00,85.7,57.9,29.68,SSE,153,6.0,8.0,39,0.00,,CLR,0.00,130.00,VWS V14.01,2013-05-15 00:05:00,
2013-05-14 19:10:00,85.3,58.3,29.67,SSE,163,2.0,6.0,40,0.00,,CLR,0.00,113.00,VWS V14.01,2013-05-15 00:10:00,
2013-05-14 19:16:00,85.1,58.1,29.68,SSE,155,5.0,9.0,40,0.00,,CLR,0.00,95.00,VWS V14.01,2013-05-15 00:16:00,
2013-05-14 19:22:00,84.9,57.9,29.67,SSE,165,2.0,7.0,40,0.00,,CLR,0.00,69.00,VWS V14.01,2013-05-15 00:22:00,
2013-05-14 19:27:00,84.7,57.7,29.67,South,174,5.0,5.0,40,0.00,,CLR,0.00,39.00,VWS V14.01,2013-05-15 00:27:00,
2013-05-14 19:32:00,84.3,58.1,29.67,SSE,159,0.0,4.0,41,0.00,,CLR,0.00,26.00,VWS V14.01,2013-05-15 00:32:00,
2013-05-14 19:37:00,84.0,57.8,29.67,SSE,161,4.0,8.0,41,0.00,,CLR,0.00,23.00,VWS V14.01,2013-05-15 00:37:00,
2013-05-14 19:43:00,83.8,58.3,29.67,SSE,165,0.0,5.0,42,0.00,,CLR,0.00,18.00,VWS V14.01,2013-05-15 00:43:00,
2013-05-14 19:48:00,83.2,58.4,29.67,SSE,165,5.0,9.0,43,0.00,,CLR,0.00,14.00,VWS V14.01,2013-05-15 00:48:00,
2013-05-14 19:53:00,83.0,58.2,29.67,SSE,165,1.0,4.0,43,0.00,,CLR,0.00,11.00,VWS V14.01,2013-05-15 00:53:00,
2013-05-14 19:58:00,82.6,57.9,29.67,SSE,164,0.0,4.0,43,0.00,,CLR,0.00,7.00,VWS V14.01,2013-05-15 00:58:00,
2013-05-14 20:04:00,82.2,58.1,29.67,SSE,160,0.0,1.0,44,0.00,,CLR,0.00,5.00,VWS V14.01,2013-05-15 01:04:00,
2013-05-14 20:09:00,81.8,57.8,29.67,South,176,5.0,5.0,44,0.00,,CLR,0.00,0.00,VWS V14.01,2013-05-15 01:09:00,
2013-05-14 20:14:00,81.6,58.2,29.67,South,175,0.0,2.0,45,0.00,,CLR,0.00,0.00,VWS V14.01,2013-05-15 01:14:00,
2013-05-14 20:19:00,81.2,57.9,29.67,South,173,2.0,4.0,45,0.00,,CLR,0.00,0.00,VWS V14.01,2013-05-15 01:19:00,
2013-05-14 20:24:00,81.1,57.8,29.67,South,171,1.0,2.0,45,0.00,,CLR,0.00,0.00,VWS V14.01,2013-05-15 01:24:00,
2013-05-14 20:30:00,80.7,58.0,29.67,South,170,2.0,4.0,46,0.00,,CLR,0.00,0.00,VWS V14.01,2013-05-15 01:30:00,
2013-05-14 20:35:00,80.3,57.7,29.67,South,169,1.0,4.0,46,0.00,,CLR,0.00,0.00,VWS V14.01,2013-05-15 01:35:00,
2013-05-14 20:40:00,80.1,57.5,29.67,SSE,153,6.0,6.0,46,0.00,,CLR,0.00,0.00,VWS V14.01,2013-05-15 01:40:00,
2013-05-14 20:45:00,79.8,57.2,29.67,SSE,159,1.0,2.0,46,0.00,,CLR,0.00,0.00,VWS V14.01,2013-05-15 01:45:00,
2013-05-14 20:50:00,79.4,57.4,29.67,SSE,164,0.0,4.0,47,0.00,,CLR,0.00,0.00,VWS V14.01,2013-05-15 01:50:00,
2013-05-14 20:55:00,79.0,56.5,29.68,South,171,2.0,6.0,46,0.00,,CLR,0.00,0.00,VWS V14.01,2013-05-15 01:55:00,
2013-05-14 21:00:00,78.8,56.9,29.68,South,171,1.0,6.0,47,0.00,,CLR,0.00,0.00,VWS V14.01,2013-05-15 02:00:00,
2013-05-14 21:05:00,78.5,56.6,29.67,SSE,165,1.0,4.0,47,0.00,,CLR,0.00,0.00,VWS V14.01,2013-05-15 02:05:00,
2013-05-14 21:10:00,78.3,56.4,29.68,SSE,165,1.0,4.0,47,0.00,,CLR,0.00,0.00,VWS V14.01,2013-05-15 02:10:00,
2013-05-14 21:15:00,78.3,56.4,29.68,SSE,161,2.0,4.0,47,0.00,,CLR,0.00,0.00,VWS V14.01,2013-05-15 02:15:00,
2013-05-14 21:21:00,78.1,56.2,29.68,SSE,164,7.0,7.0,47,0.00,,CLR,0.00,0.00,VWS V14.01,2013-05-15 02:21:00,
2013-05-14 21:26:00,77.9,56.1,29.68,SSE,168,4.0,6.0,47,0.00,,CLR,0.00,0.00,VWS V14.01,2013-05-15 02:26:00,
2013-05-14 21:31:00,77.6,56.4,29.69,SSE,159,1.0,1.0,48,0.00,,CLR,0.00,0.00,VWS V14.01,2013-05-15 02:31:00,
2013-05-14 21:36:00,77.4,56.2,29.69,SSE,157,1.0,2.0,48,0.00,,CLR,0.00,0.00,VWS V14.01,2013-05-15 02:36:00,
2013-05-14 21:41:00,77.2,56.0,29.69,SSE,157,1.0,2.0,48,0.00,,CLR,0.00,0.00,VWS V14.01,2013-05-15 02:41:00,
2013-05-14 21:46:00,76.8,55.7,29.69,SSE,159,0.0,2.0,48,0.00,,CLR,0.00,0.00,VWS V14.01,2013-05-15 02:46:00,
2013-05-14 21:51:00,76.7,55.5,29.69,SSE,160,1.0,6.0,48,0.00,,CLR,0.00,0.00,VWS V14.01,2013-05-15 02:51:00,
2013-05-14 21:56:00,76.7,55.5,29.70,SSE,161,0.0,5.0,48,0.00,,CLR,0.00,0.00,VWS V14.01,2013-05-15 02:56:00,
2013-05-14 22:01:00,76.5,55.4,29.70,SSE,167,1.0,5.0,48,0.00,,CLR,0.00,0.00,VWS V14.01,2013-05-15 03:01:00,
2013-05-14 22:06:00,76.3,55.2,29.69,SSE,158,6.0,8.0,48,0.00,,CLR,0.00,0.00,VWS V14.01,2013-05-15 03:06:00,
2013-05-14 22:12:00,76.3,55.8,29.69,SSE,158,1.0,2.0,49,0.00,,CLR,0.00,0.00,VWS V14.01,2013-05-15 03:12:00,
2013-05-14 22:17:00,76.1,55.6,29.69,SSE,157,1.0,5.0,49,0.00,,CLR,0.00,0.00,VWS V14.01,2013-05-15 03:17:00,
2013-05-14 22:22:00,76.0,55.5,29.69,SSE,157,0.0,4.0,49,0.00,,CLR,0.00,0.00,VWS V14.01,2013-05-15 03:22:00,
2013-05-14 22:27:00,75.8,55.9,29.69,SSE,157,1.0,5.0,50,0.00,,CLR,0.00,0.00,VWS V14.01,2013-05-15 03:27:00,
2013-05-14 22:32:00,75.8,55.9,29.69,SSE,159,5.0,7.0,50,0.00,,CLR,0.00,0.00,VWS V14.01,2013-05-15 03:32:00,
2013-05-14 22:37:00,75.6,55.7,29.69,South,178,4.0,7.0,50,0.00,,CLR,0.00,0.00,VWS V14.01,2013-05-15 03:37:00,
2013-05-14 22:42:00,75.6,55.7,29.69,SSE,167,0.0,4.0,50,0.00,,CLR,0.00,0.00,VWS V14.01,2013-05-15 03:42:00,
2013-05-14 22:48:00,75.4,55.5,29.69,SSE,165,4.0,6.0,50,0.00,,CLR,0.00,0.00,VWS V14.01,2013-05-15 03:48:00,
2013-05-14 22:53:00,75.1,55.8,29.69,SSE,163,4.0,5.0,51,0.00,,CLR,0.00,0.00,VWS V14.01,2013-05-15 03:53:00,
2013-05-14 22:58:00,74.9,55.6,29.69,SE,138,6.0,11.0,51,0.00,,CLR,0.00,0.00,VWS V14.01,2013-05-15 03:58:00,
2013-05-14 23:01:00,74.7,55.4,29.69,SSW,198,4.0,6.0,51,0.00,,CLR,0.00,0.00,VWS V14.01,2013-05-15 04:01:00,
2013-05-14 23:03:00,74.7,54.8,29.69,SSE,167,1.0,7.0,50,0.00,,CLR,0.00,0.00,VWS V14.01,2013-05-15 04:03:00,
2013-05-14 23:04:00,74.7,54.8,29.69,SSE,159,7.0,8.0,50,0.00,,CLR,0.00,0.00,VWS V14.01,2013-05-15 04:04:00,
2013-05-14 23:06:00,74.9,55.0,29.69,SSE,160,5.0,5.0,50,0.00,,CLR,0.00,0.00,VWS V14.01,2013-05-15 04:06:00,
2013-05-14 23:11:00,75.1,54.1,29.69,South,178,6.0,8.0,48,0.00,,CLR,0.00,0.00,VWS V14.01,2013-05-15 04:11:00,
2013-05-14 23:16:00,75.3,53.7,29.69,SSW,211,1.0,6.0,47,0.00,,CLR,0.00,0.00,VWS V14.01,2013-05-15 04:16:00,
2013-05-14 23:21:00,75.6,53.4,29.69,SSW,207,3.0,8.0,46,0.00,,CLR,0.00,0.00,VWS V14.01,2013-05-15 04:21:00,
2013-05-14 23:24:00,75.6,52.8,29.69,SW,233,4.0,6.0,45,0.00,,CLR,0.00,0.00,VWS V14.01,2013-05-15 04:24:00,
2013-05-14 23:30:00,75.8,53.0,29.69,South,185,2.0,3.0,45,0.00,,CLR,0.00,0.00,VWS V14.01,2013-05-15 04:30:00,
2013-05-14 23:35:00,75.4,52.6,29.69,South,172,5.0,8.0,45,0.00,,CLR,0.00,0.00,VWS V14.01,2013-05-15 04:35:00,
2013-05-14 23:40:00,75.4,52.6,29.69,SSW,197,4.0,5.0,45,0.00,,CLR,0.00,0.00,VWS V14.01,2013-05-15 04:40:00,
2013-05-14 23:45:00,75.3,52.5,29.69,South,176,6.0,6.0,45,0.00,,CLR,0.00,0.00,VWS V14.01,2013-05-15 04:45:00,
2013-05-14 23:50:00,75.3,51.9,29.69,SSW,210,6.0,8.0,44,0.00,,CLR,0.00,0.00,VWS V14.01,2013-05-15 04:50:00,
2013-05-14 23:55:00,75.3,51.9,29.69,SSW,207,3.0,7.0,44,0.00,,CLR,0.00,0.00,VWS V14.01,2013-05-15 04:55:00,